Regional Weather Roundup
Issued by NWS

Home | Current Version | Previous Version | Text Only | Print | Product List | Glossary Off
Versions: 1 2 3 4 5 6 7 8 9 10 11 12 13 14 15 16 17 18 19 20 21 22 23 24 25 26 27 28 29 30 31 32 33 34 35 36 37 38 39 40 41 42 43 44 45 46 47 48 49 50

000
ASUS43 KFSD 230302
RWRSD

WEATHER ROUNDUP FOR SOUTH DAKOTA
NATIONAL WEATHER SERVICE SIOUX FALLS SD
1000 PM CDT FRI MAY 22 2015

NOTE: "FAIR" INDICATES FEW OR NO CLOUDS BELOW 12,000 FEET WITH NO
SIGNIFICANT WEATHER AND/OR OBSTRUCTIONS TO VISIBILITY.


SDZ001>005-009-010-012>017-230400-
NORTHWEST AND NORTH CENTRAL SOUTH DAKOTA

CITY           SKY/WX    TMP DP  RH WIND       PRES   REMARKS
BUFFALO          N/A     53  37  54 SE14      30.00R
FAITH            N/A     54  40  59 S14       30.10R
MOBRIDGE       MOCLDY    58  42  55 S5        30.09R
$$

SDZ012>016-024>037-041>051-057-063-072>074-230400-
SOUTHWEST AND SOUTH CENTRAL SOUTH DAKOTA

CITY           SKY/WX    TMP DP  RH WIND       PRES   REMARKS
RAPID CTY ARPT CLOUDY    51  42  71 SE14      30.09R
PIERRE         MOCLDY    54  42  64 S16       30.14R
CUSTER         CLOUDY    41  39  93 CALM      30.09S FOG
ELLSWORTH AFB  CLOUDY    51  43  74 S13       30.08R
PHILIP         CLOUDY    53  44  71 S8        30.12S
PINE RIDGE     CLOUDY    47  42  83 SE9       30.10S
WINNER         CLOUDY    53  40  61 S13       30.16S
$$

SDZ004>011-016>023-039-040-230400-
NORTHEAST SOUTH DAKOTA

CITY           SKY/WX    TMP DP  RH WIND       PRES   REMARKS
ABERDEEN       CLOUDY    61  44  53 SW10      30.13R
WATERTOWN      CLOUDY    58  43  57 SW12      30.18R
BROOKINGS      CLOUDY    57  43  58 SW13      30.21R
$$

SDZ017-020-022-023-036>040-048>070-230400-
SOUTHEAST SOUTH DAKOTA

CITY           SKY/WX    TMP DP  RH WIND       PRES   REMARKS
SIOUX FALLS    CLOUDY    59  42  53 CALM      30.19S
HURON          PTCLDY    55  42  61 S7        30.18R
CHAMBERLAIN    MOCLDY    47  40  75 S7        30.17R
MITCHELL       MOCLDY    56  44  64 CALM      30.18S
YANKTON        CLOUDY    61  39  44 S10       30.17R
$$

ABBREVIATIONS USED IN REMARKS
   TC - TEMPERATURE IN CELSIUS
  WCI - WIND CHILL INDEX
   HX - HEAT INDEX
  VSB - VISIBILITY



USA.gov is the U.S. government's official web portal to all federal, state and local government web resources and services.